Regional Weather Roundup
Issued by NWS Midland/Odessa, TX

Skip options and go directly to product.
Home | Oldest Version | Previous Version | Current Version | All | Graphics & Text | Save Text | Print | Product List | Glossary On

Skip product version selection by date and time.   
135
ASUS44 KMAF 181510
RWRMAF
MIDLAND AREA WEATHER ROUNDUP
NATIONAL WEATHER SERVICE MIDLAND TX
900 AM CST THU DEC 18 2014

...IN SOUTHWEST TEXAS AND SOUTHEAST NEW MEXICO...

CITY           SKY/WX    TMP DP  RH WIND       PRES   REMARKS
ALPINE         SUNNY     41  29  62 SW3       30.22S
ANDREWS        FAIR      43  32  65 W5        30.14R
ARTESIA        MOSUNNY   34  30  86 NW6       30.13S WCI  29
BIG SPRING     SUNNY     43  38  80 SE3       30.16R
CARLSBAD       PTSUNNY   50  36  58 SW8       30.11R
DRYDEN           N/A     47  46  97 CALM      30.13R
FORT STOCKTON  MOSUNNY   50  30  46 SW13      30.14R
GUAD PASS      NOT AVBL
HOBBS          SUNNY     41  32  70 CALM      30.13R
MARFA          SUNNY     37  28  70 CALM      30.18S
MIDLAND AIRPK  MOSUNNY   42  32  67 W5        30.14R WCI  39
MIDLAND INTL   MOSUNNY   44  34  67 W5        30.13R
ODESSA         PTSUNNY   46  33  60 W6        30.13R
PECOS          PTSUNNY   47  33  57 SW10      30.13R
PRESIDIO       FAIR      41  30  65 CALM      30.16R
SEMINOLE       SUNNY     40  32  71 NW8       30.13R WCI  35
SNYDER         SUNNY     37  36  95 CALM      30.13R
WINK           PTSUNNY   40  28  62 CALM      30.12R
$$
...OTHER STATIONS IN TEXAS...

CITY           SKY/WX    TMP DP  RH WIND       PRES   REMARKS
ABILENE        SUNNY     47  45  93 SW6       30.11R
AMARILLO       CLOUDY    34  33  96 N10       30.10R WCI  26
AUSTIN         FOG       50  50 100 N8        30.13R VSB 3/4
BROWNSVILLE    MOSUNNY   71  68  90 SE7       30.05R
CORPUS CHRISTI PTSUNNY   70  67  90 SE7       30.06R
DALLAS FTW     DRZL/FOG  43  43 100 CALM      30.15R VSB 1
DEL RIO        CLOUDY    55  50  83 NW7       30.13R
EL PASO        MOSUNNY   38  32  79 E3        30.13S
HOUSTON INT    CLOUDY    57  55  93 N8        30.11R FOG
LUBBOCK        MOSUNNY   40  32  73 NW10      30.08R WCI  33
SAN ANGELO     CLOUDY    45  44  97 W3        30.13S FOG
SAN ANTONIO    CLOUDY    59  56  89 E5        30.11R
WACO           FOG       47  46  97 CALM      30.14S VSB 1
WICHITA FALLS  NOT AVBL
$$
...OTHER LOCATIONS IN NEW MEXICO...

CITY           SKY/WX    TMP DP  RH WIND       PRES   REMARKS
ALAMAGORDO     PTCLDY    39  32  75 S3        30.14R
ALBUQUERQUE    PTCLDY    30  26  85 E7        30.15S WCI  23
CANNON AFB     SUNNY     37  27  68 NW14      30.07S WCI  28
CLOVIS         SUNNY     34  27  75 W8        30.08R WCI  27
HOLLOMAN AFB   PTCLDY    38  33  84 S5        30.13R WCI  34
ROSWELL        MOSUNNY   36  28  73 W6        30.12R WCI  31
RUIDOSO        CLEAR     32  27  80 NE3       30.14R
SANTA FE       PTCLDY    24  20  84 NW3       30.10S
TRUTH OR CONSE CLEAR     39  29  67 W3        30.14R
TUCUMCARI      FOG       31  29  92 NE5       30.09R VSB<1/4 WCI  26
$$

USA.gov is the U.S. government's official web portal to all federal, state and local government web resources and services.